Location: Helsinki
(60.1699°N, 24.9384°E)
Time: 16:26:47
(UTC+02:00)

Vanguard 2 - All Passes

Search period start: 30 October 2020 00:00
Search period end: 09 November 2020 00:00
Orbit: 554 x 2937 km, 32.9° (Epoch: 30 October)

Date Brightness Start Highest point End Pass type
(mag) Time Alt. Az. Time Alt. Az. Time Alt. Az.
30 Oct - 00:47:14 10° WSW 00:55:49 16° SSW 01:04:19 10° S visible
30 Oct - 18:42:29 10° S 18:48:39 14° SE 18:55:35 10° ESE visible
30 Oct - 20:46:08 10° SSW 20:56:15 22° S 21:07:54 10° SE visible
30 Oct - 22:53:54 10° SW 23:04:40 22° SSW 23:16:09 10° SSE visible
31 Oct - 01:06:24 10° WSW 01:12:39 13° SW 01:18:52 10° SSW night (unlit)
31 Oct - 18:58:18 10° S 19:05:29 16° SSE 19:13:52 10° ESE visible
31 Oct - 21:03:10 10° SW 21:13:18 23° S 21:25:01 10° SE visible
31 Oct - 23:11:40 10° WSW 23:21:42 20° SSW 23:32:23 10° SSE visible
01 Nov - 19:14:38 10° SSW 19:22:25 18° SSE 19:31:41 10° ESE visible
01 Nov - 21:20:25 10° SW 21:30:23 22° S 21:41:56 10° SE visible
01 Nov - 23:29:46 10° WSW 23:38:41 17° SSW 23:48:08 10° S visible
02 Nov - 19:31:17 10° SSW 19:39:23 19° SSE 19:49:11 10° SE visible
02 Nov - 21:37:51 10° SW 21:47:28 21° S 21:58:35 10° SSE visible
02 Nov - 23:48:25 10° SW 23:55:38 14° SSW 00:03:12 10° S visible
03 Nov - 17:45:35 10° SSE 17:49:14 12° SE 17:53:18 10° SE visible
03 Nov - 19:48:13 10° SSW 19:56:26 20° S 20:06:27 10° SE visible
03 Nov - 21:55:32 10° SW 22:04:34 19° SSW 22:14:56 10° SSE visible
04 Nov - 00:08:34 10° SW 00:12:32 11° SW 00:16:36 10° SSW visible
04 Nov - 18:01:12 10° S 18:06:08 14° SSE 18:11:52 10° SE visible
04 Nov - 20:05:23 10° SW 20:13:31 20° S 20:23:28 10° SE visible
04 Nov - 22:13:30 10° SW 22:21:39 17° SSW 22:30:52 10° SSE visible
05 Nov - 18:17:32 10° S 18:23:05 15° SSE 18:29:44 10° SE visible
05 Nov - 20:22:45 10° SW 20:30:39 19° S 20:40:14 10° SE visible
05 Nov - 22:31:58 10° SW 22:38:42 14° SSW 22:46:10 10° S visible
06 Nov - 18:34:16 10° SSW 18:40:07 16° SSE 18:47:13 10° SE visible
06 Nov - 20:40:23 10° SW 20:47:47 18° S 20:56:41 10° SSE visible
06 Nov - 22:51:36 10° SW 22:55:43 11° SSW 23:00:06 10° SSW visible
07 Nov - 18:51:19 10° SSW 18:57:12 16° S 19:04:24 10° SE visible
07 Nov - 20:58:19 10° SW 21:04:56 16° SSW 21:12:43 10° SSE visible
08 Nov - 19:08:37 10° SSW 19:14:20 16° S 19:21:17 10° SE visible
08 Nov - 21:16:47 10° SW 21:22:04 13° SSW 21:28:05 10° S visible
